Regional Weather Roundup
Issued by NWS Sterling, VA

Home | Current Version | Previous Version | Text Only | Print | Product List | Glossary On
Versions: 1 2 3 4 5 6 7 8 9 10 11 12 13 14 15 16 17 18 19 20 21 22 23 24 25 26 27
000
ASUS41 KLWX 210110
RWRLWX

REGIONAL WEATHER ROUNDUP
NATIONAL WEATHER SERVICE BALTIMORE MD/WASHINGTON DC
800 PM EST MON FEB 20 2017

Note: "FAIR" indicates few or no clouds below 12,000 feet
with no significant weather and/or obstructions to visibility.
 TC=TEMPERATURE CELSIUS

 * =Non NWS site. Station does not report precipitation (e.g. rain,
    snow, etc.), thunder, or fog.

DCZ001-MDZ009-015-VAZ040>042-051-053>054-210200-
WASHINGTON METRO

CITY           SKY/WX    TMP DP  RH WIND       PRES   REMARKS
WASHINGTON NAT CLEAR     55  35  47 E6        30.25S
DULLES         PTCLDY    53  30  41 E7        30.24R
ANDREWS AFB    CLEAR     50  31  48 E6        30.24S
FT BELVOIR     CLEAR     53  31  43 CALM      30.25R
QUANTICO       CLEAR     54  35  48 CALM      30.25R
COLLEGE PARK*  CLEAR     52  30  43 NE3       30.25S
LEESBURG*      CLEAR     54  34  47 NE5       30.25S
MANASSAS*      CLEAR     56  30  37 E3        30.23F
GAITHERSBURG*  CLEAR     50  28  43 E3        30.28S

$$

MDZ006>007-011-014-210200-
BALTIMORE METRO

CITY           SKY/WX    TMP DP  RH WIND       PRES   REMARKS
BWI AIRPORT    PTCLDY    52  26  36 NE9       30.25F
MD SCIENCE CTR   N/A     56  25  30 MISG      30.27S
MARTIN STATE   CLEAR     46  32  57 CALM      30.28S
ANNAPOLIS      CLEAR     53  31  42 NE7       30.26S
FORT MEADE*    CLEAR     45  28  53 CALM      30.28S

$$

MDZ012-015-019>023-210200-
MARYLAND EASTERN SHORE

CITY           SKY/WX    TMP DP  RH WIND       PRES   REMARKS
OCEAN CITY     CLEAR     47  30  51 N6        30.27R
SALISBURY      CLEAR     45  35  68 CALM      30.26R
BAY BRIDGE AP* CLEAR     52  30  43 NE6       30.27S
EASTON*        CLEAR     46  30  53 NE6       30.30R

$$

MDZ017>025-210200-
SOUTHERN MARYLAND

CITY           SKY/WX    TMP DP  RH WIND       PRES   REMARKS
PATUXENT RIVER CLEAR     43  37  79 CALM      30.25R
ST INIGOES     CLEAR     44  34  67 NE6       30.25R
LEONARDTOWN*   CLEAR     45  32  61 CALM      30.27S

$$

MDZ003>005-210200-
NORTH CENTRAL MARYLAND

CITY           SKY/WX    TMP DP  RH WIND       PRES   REMARKS
FREDERICK*     NOT AVBL
HAGERSTOWN APT CLEAR     51  31  46 E5        30.23S
WESTMINSTER*   CLEAR     48  28  46 NE5       30.26S

$$

MDZ501>502-210200-
WESTERN MARYLAND

CITY           SKY/WX    TMP DP  RH WIND       PRES   REMARKS
OAKLAND*       CLOUDY    46  30  53 E7        30.22S
CUMBERLAND*    PTCLDY    57  28  33 NW5       30.26R

$$

VAZ025>031-210200-
SHENANDOAH VALLEY

CITY           SKY/WX    TMP DP  RH WIND       PRES   REMARKS
WINCHESTER*    CLEAR     45  32  61 CALM      30.23R
FRONT ROYAL*   CLEAR     54  36  50 NE3       30.21R
LURAY*         CLOUDY    52  41  66 NE6       30.21R
NEW MARKET*    CLOUDY    44  35  68 CALM      30.20R
STAUNTON*      CLOUDY    44  36  73 CALM      30.22S
WAYNESBORO*    PTCLDY    56  30  37 SE5       30.21S

$$

WVZ021-048>050-054>055-210200-
EASTERN WEST VIRGINIA PANHANDLE

CITY           SKY/WX    TMP DP  RH WIND       PRES   REMARKS
MARTINSBURG    CLEAR     50  29  44 CALM      30.23S
PETERSBURG*    CLOUDY    49  40  70 CALM      30.21R

$$

VAZ036>039-050-210200-
CENTRAL FOOTHILLS

CITY           SKY/WX    TMP DP  RH WIND       PRES   REMARKS
CHARLOTTESVILL CLEAR     59  35  40 NE5       30.21S
CULPEPER*      CLEAR     51  36  55 NE3       30.23F
ORANGE*        CLEAR     46  36  66 CALM      30.23S
GORDONSVILLE*  CLEAR     49  38  68 CALM      30.21S
WARRENTON*     CLEAR     45  32  60 CALM      30.23S

$$

VAZ055>057-210200-
NORTH AND CENTRAL PIEDMONT

CITY           SKY/WX    TMP DP  RH WIND       PRES   REMARKS
FREDERICKSBRG* CLEAR     55  36  48 E7        30.23S
STAFFORD*      CLEAR     54  33  45 E7        30.28R HAZE

$$

NCZ024-NYZ072-PAZ021-071-VAZ022-071-210200-
OTHER REGIONAL OBSERVATIONS

CITY           SKY/WX    TMP DP  RH WIND       PRES   REMARKS
NEW YORK CITY  CLEAR     45  10  24 NE9       30.33R
PHILADELPHIA   CLEAR     50  18  28 N12       30.29R
PITTSBURGH     CLOUDY    52  34  50 E3        30.20S
ROANOKE        PTCLDY    56  31  38 W5        30.22R
RICHMOND       PTCLDY    55  40  56 E7        30.23R
RALEIGH        MOCLDY    57  37  47 CALM      30.20S

$$

ANZ530>537-210200-
MARINE OBSERVATIONS

STATION/POSITION TIME  TEMP    WIND        PRES
                       AIR SEA DIR/SP/G
                 (UTC) (F)     (DEG/KT/KT) (MB)
THOMAS PT LIGHT  0100   54 43   40/ 14/ 15   N/A
BALT KEY BRIDGE  0042   54      40/  7/  8 1024.9R
COVE POINT       0042   51     350/  6/  6 1025.1R
LEWISETTA        0042   53 47   30/  2/  2 1024.0R
SOLOMONS ISLAND  0042   46 44  230/  2/  2   N/A
PINEY POINT      0048           60/  3/  3   N/A

$$





USA.gov is the U.S. government's official web portal to all federal, state and local government web resources and services.